GW3467 Weather Reports


time (UTC)temp
F
wind
direction
speed
knots
gust
knots
rain 1hr
in
rain 24hr
in
rain mn
in
humidity
%
barometer
mb
20260508115458 45 178 0.9 2.6 0.00 0.00 0.00 81 1014.5
20260508114955 45 179 0.0 1.7 0.00 0.00 0.00 81 1014.3
20260508114452 44 198 0.0 0.9 0.00 0.00 0.00 82 1014.4
20260508113948 44 192 1.7 2.6 0.00 0.00 0.00 83 1014.3
20260508113446 44 181 0.0 2.6 0.00 0.00 0.00 82 1014.3
20260508112943 43 197 0.9 2.6 0.00 0.00 0.00 83 1014.2
20260508112439 43 184 0.0 1.7 0.00 0.00 0.00 84 1014.3
20260508111936 43 189 1.7 1.7 0.00 0.00 0.00 83 1014.4
20260508111433 43 190 1.7 5.2 0.00 0.00 0.00 84 1014.1
20260508110930 43 191 1.7 2.6 0.00 0.00 0.00 84 1014.2
20260508110428 43 193 0.9 3.5 0.00 0.00 0.00 85 1014.1
20260508105927 43 188 1.7 2.6 0.00 0.00 0.00 84 1014.1
20260508105424 43 198 1.7 3.5 0.00 0.00 0.00 84 1013.8
20260508104922 43 191 0.9 5.2 0.00 0.00 0.00 85 1014.0
20260508104419 43 178 0.0 2.6 0.00 0.00 0.00 84 1013.9
20260508103916 43 190 0.0 2.6 0.00 0.00 0.00 83 1013.8
20260508103413 44 182 2.6 3.5 0.00 0.00 0.00 82 1013.9
20260508102910 44 200 2.6 3.5 0.00 0.00 0.00 82 1013.9
20260508102408 44 177 2.6 3.5 0.00 0.00 0.00 80 1013.6
20260508101905 44 190 0.9 1.7 0.00 0.00 0.00 81 1013.8
20260508101402 44 142 0.9 2.6 0.00 0.00 0.00 81 1013.6
20260508100859 44 140 0.9 2.6 0.00 0.00 0.00 82 1013.4
20260508100358 44 194 1.7 1.7 0.00 0.00 0.00 83 1013.6
20260508095853 44 143 0.0 1.7 0.00 0.00 0.00 82 1013.9
20260508095352 43 176 0.9 1.7 0.00 0.00 0.00 83 1013.8
20260508094848 44 166 0.0 0.9 0.00 0.00 0.00 83 1013.6
20260508094345 44 179 0.0 1.7 0.00 0.00 0.00 82 1013.8
20260508093842 44 183 0.0 0.9 0.00 0.00 0.00 82 1013.8
20260508093339 44 188 0.0 1.7 0.00 0.00 0.00 82 1013.9
20260508092837 44 171 0.0 0.9 0.00 0.00 0.00 82 1014.1
20260508092335 44 166 0.0 1.7 0.00 0.00 0.00 82 1014.1
20260508091833 44 206 1.7 2.6 0.00 0.00 0.00 82 1014.0
20260508091329 44 173 0.9 0.9 0.00 0.00 0.00 82 1014.0
20260508090827 44 190 0.0 1.7 0.00 0.00 0.00 83 1014.2
20260508090325 44 170 0.0 0.0 0.00 0.00 0.00 83 1014.3
20260508085820 44 170 0.0 0.0 0.00 0.00 0.00 83 1014.0
20260508085318 44 173 0.0 0.9 0.00 0.00 0.00 82 1014.1
20260508084814 44 173 0.0 0.0 0.00 0.00 0.00 83 1014.1
20260508084311 44 161 0.9 1.7 0.00 0.00 0.00 83 1013.9
20260508083809 45 167 0.0 0.0 0.00 0.00 0.00 81 1014.2
20260508083306 45 178 0.0 0.0 0.00 0.00 0.00 80 1014.2
20260508082805 45 179 0.9 0.9 0.00 0.00 0.00 80 1014.1
20260508082306 45 183 0.0 0.9 0.00 0.00 0.00 80 1014.2
20260508081801 44 184 0.9 0.9 0.00 0.00 0.00 83 1014.1
20260508081257 45 186 0.0 0.0 0.00 0.00 0.00 82 1014.0
20260508080754 45 186 0.0 0.0 0.00 0.00 0.00 83 1014.1
20260508080253 46 186 0.0 0.0 0.00 0.00 0.00 84 1014.2
20260508075748 46 188 0.0 0.0 0.00 0.00 0.00 81 1014.2
20260508075245 47 189 0.0 0.0 0.00 0.00 0.00 77 1014.2
20260508074743 48 189 0.0 0.0 0.00 0.00 0.00 74 1014.1
20260508074240 48 189 0.0 0.9 0.00 0.00 0.00 74 1014.1
20260508073737 48 207 0.0 0.0 0.00 0.00 0.00 74 1014.2
20260508073235 48 207 0.0 0.0 0.00 0.00 0.00 73 1014.4
20260508072731 48 208 0.0 0.9 0.00 0.00 0.00 73 1014.3
20260508072228 48 207 0.0 0.0 0.00 0.00 0.00 73 1014.5
20260508071726 48 208 0.0 0.9 0.00 0.00 0.00 73 1014.3
20260508071224 48 205 0.0 0.0 0.00 0.00 0.00 72 1014.4
20260508070721 48 204 0.0 2.6 0.00 0.00 0.00 72 1014.7
20260508070219 48 206 0.0 2.6 0.00 0.00 0.00 73 1014.7
20260508065716 48 206 0.9 1.7 0.00 0.00 0.00 73 1014.7
20260508065214 48 235 1.7 3.5 0.00 0.00 0.00 73 1015.1
20260508064711 47 271 1.7 3.5 0.00 0.00 0.00 75 1015.0
20260508064209 46 200 0.9 2.6 0.00 0.00 0.00 76 1015.0
20260508063707 47 215 0.9 2.6 0.00 0.00 0.00 76 1015.0
20260508063204 46 216 3.5 5.2 0.00 0.00 0.00 76 1014.9
20260508062701 45 201 0.9 0.9 0.00 0.00 0.00 79 1015.0
20260508062159 44 206 0.9 2.6 0.00 0.00 0.00 87 1015.4
20260508061655 44 209 0.0 0.9 0.00 0.00 0.00 87 1015.1
20260508061153 44 214 0.9 0.9 0.00 0.00 0.00 86 1015.2
20260508060649 45 206 0.0 0.9 0.00 0.00 0.00 85 1015.2
20260508060147 45 214 0.9 1.7 0.00 0.00 0.00 82 1015.0
20260508055642 46 173 0.0 0.9 0.00 0.00 0.00 78 1014.8
20260508055139 46 173 0.0 0.0 0.00 0.00 0.00 73 1014.5
20260508054636 46 173 0.0 0.0 0.00 0.00 0.00 71 1014.7
20260508054134 46 173 0.0 0.0 0.00 0.00 0.00 70 1014.6
20260508053630 46 173 0.0 0.9 0.00 0.00 0.00 70 1014.6
20260508053128 46 173 0.0 0.9 0.00 0.00 0.00 69 1014.5
20260508052625 46 173 0.9 0.9 0.00 0.00 0.00 70 1014.5
20260508052122 46 173 0.0 0.9 0.00 0.00 0.00 73 1014.6
20260508051618 45 173 0.0 0.0 0.00 0.00 0.00 74 1014.5
20260508051113 45 172 0.9 0.9 0.00 0.00 0.00 85 1014.4
20260508050610 45 173 0.0 0.9 0.00 0.00 0.00 84 1014.5
20260508050108 45 173 0.0 0.9 0.00 0.00 0.00 82 1014.8
20260508045604 45 173 0.0 0.0 0.00 0.00 0.00 81 1014.7
20260508045102 45 172 0.0 0.0 0.00 0.00 0.00 79 1014.8
20260508044559 46 173 0.0 0.0 0.00 0.00 0.00 76 1014.8
20260508044055 46 173 0.0 0.9 0.00 0.00 0.00 74 1014.7
20260508043551 46 173 0.9 1.7 0.00 0.00 0.00 70 1015.0
20260508043049 45 173 0.9 0.9 0.00 0.00 0.00 80 1015.0
20260508042545 45 173 0.0 0.0 0.00 0.00 0.00 74 1015.0
20260508042043 46 172 0.9 0.9 0.00 0.00 0.00 76 1015.0
20260508041539 46 172 0.9 1.7 0.00 0.00 0.00 72 1014.8
20260508041035 45 173 0.0 0.0 0.00 0.00 0.00 72 1014.9
20260508040532 44 173 0.0 0.0 0.00 0.00 0.00 77 1015.1
20260508040030 45 173 0.0 0.0 0.00 0.00 0.00 77 1014.8
20260508035527 45 173 0.0 0.0 0.00 0.00 0.00 80 1014.7
20260508035024 46 173 0.0 0.0 0.00 0.00 0.00 78 1014.9
20260508034521 46 174 0.0 0.0 0.00 0.00 0.00 72 1015.2
20260508034018 46 174 0.0 0.0 0.00 0.00 0.00 72 1015.0
20260508033516 46 174 0.0 0.0 0.00 0.00 0.00 74 1015.0
20260508033014 46 174 0.0 0.0 0.00 0.00 0.00 73 1014.9
20260508032510 46 174 0.0 0.0 0.00 0.00 0.00 73 1014.7
20260508032008 45 173 0.0 0.0 0.00 0.00 0.00 74 1014.7
20260508031505 45 174 0.0 0.0 0.00 0.00 0.00 78 1014.8
20260508030959 45 174 0.0 0.0 0.00 0.00 0.00 78 1014.7
20260508030457 45 174 0.0 0.0 0.00 0.00 0.00 79 1014.7
20260508025955 46 174 0.0 0.0 0.00 0.00 0.00 78 1014.7
20260508025450 45 174 0.0 0.9 0.00 0.00 0.00 73 1014.9
20260508024948 45 189 0.9 1.7 0.00 0.00 0.00 76 1014.8
20260508024444 46 194 0.9 0.9 0.00 0.00 0.00 77 1015.0
20260508023941 47 175 0.0 0.0 0.00 0.00 0.00 67 1014.8
20260508023438 48 174 0.0 0.0 0.00 0.00 0.00 62 1014.5
20260508022935 48 198 0.0 0.9 0.00 0.00 0.00 61 1014.8
20260508022430 48 189 0.9 1.7 0.00 0.00 0.00 61 1014.8
20260508021927 48 190 0.0 0.9 0.00 0.00 0.00 62 1014.8
20260508021424 48 191 0.0 0.0 0.00 0.00 0.00 61 1014.6
20260508020919 48 196 0.9 1.7 0.00 0.00 0.00 60 1014.8
20260508020418 49 190 0.0 0.9 0.00 0.00 0.00 59 1014.8
20260508015914 48 193 0.0 0.0 0.00 0.00 0.00 59 1014.7
20260508015412 48 188 0.0 0.0 0.00 0.00 0.00 59 1014.7
20260508014908 48 187 0.0 0.0 0.00 0.00 0.00 59 1014.7
20260508014406 49 188 0.0 0.0 0.00 0.00 0.00 58 1014.8
20260508013902 49 189 0.0 0.9 0.00 0.00 0.00 59 1014.5
20260508013357 49 175 0.0 0.9 0.00 0.00 0.00 59 1014.7
20260508012855 48 188 0.0 0.0 0.00 0.00 0.00 59 1014.6
20260508012352 49 188 0.0 0.0 0.00 0.00 0.00 59 1014.5
20260508011850 49 186 0.0 0.9 0.00 0.00 0.00 58 1014.5
20260508011348 49 192 0.0 0.0 0.00 0.00 0.00 59 1014.4
20260508010844 48 192 0.0 0.9 0.00 0.00 0.00 58 1014.3
20260508010342 49 192 0.0 0.0 0.00 0.00 0.00 57 1014.5
20260508005839 49 187 0.0 0.9 0.00 0.00 0.00 57 1014.3
20260508005335 49 187 0.0 0.9 0.00 0.00 0.00 57 1014.2
20260508004831 49 189 0.0 0.0 0.00 0.00 0.00 58 1014.4
20260508004328 50 189 0.0 0.0 0.00 0.00 0.00 57 1014.2
20260508003824 50 189 0.0 0.0 0.00 0.00 0.00 56 1014.3
20260508003322 50 189 0.0 0.0 0.00 0.00 0.00 57 1014.2
20260508002819 50 191 0.0 0.0 0.00 0.00 0.00 56 1014.2
20260508002315 51 192 0.0 0.0 0.00 0.00 0.00 54 1014.1
20260508001811 52 206 0.0 1.7 0.00 0.00 0.00 53 1014.2
20260508001308 52 212 1.7 2.6 0.00 0.00 0.00 52 1014.2
20260508000803 52 216 0.9 1.7 0.00 0.00 0.00 53 1014.0
20260508000301 53 245 1.7 5.2 0.00 0.00 0.00 50 1014.1
20260507235757 53 219 1.7 2.6 0.00 0.00 0.00 51 1014.1
20260507235255 53 219 0.9 5.2 0.00 0.00 0.00 48 1013.9
20260507234751 53 235 3.5 5.2 0.00 0.00 0.00 49 1013.8
20260507234248 53 222 0.9 1.7 0.00 0.00 0.00 54 1014.1
20260507233744 54 204 0.9 1.7 0.00 0.00 0.00 50 1013.6
20260507233242 54 27 2.6 2.6 0.00 0.00 0.00 48 1013.9
20260507232740 55 223 1.7 3.5 0.00 0.00 0.00 49 1013.8
20260507232236 55 211 0.0 1.7 0.00 0.00 0.00 50 1014.0
20260507231733 54 232 3.5 6.1 0.00 0.00 0.00 49 1013.8
20260507231230 54 291 2.6 2.6 0.00 0.00 0.00 49 1014.0
20260507230726 53 297 3.5 3.5 0.00 0.00 0.00 50 1013.9
20260507230224 53 285 1.7 2.6 0.00 0.00 0.00 50 1014.0
20260507225723 53 308 4.3 6.1 0.00 0.00 0.00 50 1014.0
20260507225220 54 302 1.7 5.2 0.00 0.00 0.00 51 1014.0
20260507224716 55 16 3.5 6.1 0.00 0.00 0.00 49 1014.1
20260507224213 57 302 3.5 5.2 0.00 0.00 0.00 48 1014.3
20260507223709 56 284 4.3 6.1 0.00 0.00 0.00 49 1014.1
20260507223206 56 277 3.5 6.1 0.00 0.00 0.00 46 1014.0
20260507222703 56 1 1.7 6.1 0.00 0.00 0.00 51 1014.1
20260507222159 55 295 5.2 7.8 0.00 0.00 0.00 47 1014.0
20260507221656 54 305 8.7 11.3 0.00 0.00 0.00 48 1014.0
20260507221152 53 250 0.9 6.1 0.00 0.00 0.00 51 1014.1
20260507220649 54 247 4.3 7.8 0.00 0.00 0.00 49 1014.0
20260507220147 55 233 1.7 6.1 0.00 0.00 0.00 50 1014.0
20260507215643 54 322 7.8 9.6 0.00 0.00 0.00 47 1014.1
20260507215140 54 358 5.2 7.8 0.00 0.00 0.00 48 1013.9
20260507214637 57 312 5.2 8.7 0.00 0.00 0.00 46 1014.0
20260507214134 57 267 6.1 12.2 0.00 0.00 0.00 45 1014.0
20260507213630 57 10 3.5 6.1 0.00 0.00 0.00 47 1013.6
20260507213128 57 330 5.2 7.0 0.00 0.00 0.00 45 1013.6
20260507212623 58 23 2.6 7.0 0.00 0.00 0.00 45 1013.6
20260507212120 57 320 3.5 8.7 0.00 0.00 0.00 45 1013.4
20260507211617 57 318 6.1 9.6 0.00 0.00 0.00 46 1013.6
20260507211113 56 295 5.2 7.0 0.00 0.00 0.00 46 1013.6
20260507210611 57 300 3.5 7.0 0.00 0.00 0.00 48 1013.9
20260507210107 57 296 3.5 11.3 0.00 0.00 0.00 51 1013.5
20260507205603 56 221 3.5 7.0 0.00 0.00 0.00 49 1013.5
20260507205100 57 292 4.3 7.0 0.00 0.00 0.00 47 1013.4
20260507204556 57 314 7.0 12.2 0.00 0.00 0.00 47 1013.2
20260507204054 57 264 4.3 7.8 0.00 0.00 0.00 50 1013.4
20260507203552 57 293 2.6 3.5 0.00 0.00 0.00 52 1013.4
20260507203049 55 332 1.7 7.0 0.00 0.00 0.00 52 1013.1
20260507202544 54 26 5.2 7.8 0.00 0.00 0.00 52 1013.5
20260507202041 54 255 5.2 12.2 0.00 0.00 0.00 52 1013.6
20260507201536 55 206 1.7 7.0 0.00 0.00 0.00 52 1013.5
20260507201033 55 251 3.5 7.8 0.00 0.00 0.00 49 1013.4
20260507200529 56 69 2.6 6.1 0.00 0.00 0.00 51 1013.4
20260507200025 55 287 1.7 6.1 0.00 0.00 0.00 57 1013.6
20260507195522 55 316 3.5 7.0 0.00 0.00 0.00 53 1013.4
20260507195020 56 309 3.5 7.8 0.00 0.00 0.00 52 1013.6
20260507194516 56 336 3.5 8.7 0.00 0.00 0.00 54 1013.5
20260507194012 54 226 3.5 6.1 0.00 0.00 0.00 56 1013.6
20260507193509 55 279 7.8 13.9 0.00 0.00 0.00 54 1013.6
20260507193006 57 269 7.8 11.3 0.00 0.00 0.00 51 1013.6
20260507192502 56 260 4.3 9.6 0.00 0.00 0.00 52 1013.6
20260507191959 56 271 9.6 12.2 0.00 0.00 0.00 54 1013.5
20260507191454 56 300 5.2 11.3 0.00 0.00 0.00 55 1013.8
20260507190952 54 305 6.1 8.7 0.00 0.00 0.00 53 1013.8
20260507190449 54 235 2.6 9.6 0.00 0.00 0.00 57 1014.1
20260507185948 56 227 3.5 7.8 0.00 0.00 0.00 59 1013.6
20260507185445 56 251 3.5 8.7 0.00 0.00 0.00 54 1013.8
20260507184942 56 245 3.5 8.7 0.00 0.00 0.00 56 1013.8
20260507184440 56 219 3.5 9.6 0.00 0.00 0.00 61 1013.8
20260507183938 56 249 3.5 7.8 0.00 0.00 0.00 55 1013.9
20260507183434 56 221 1.7 5.2 0.00 0.00 0.00 54 1013.8
20260507182931 56 264 5.2 6.1 0.00 0.00 0.00 51 1013.8
20260507182427 57 314 7.0 11.3 0.00 0.00 0.00 49 1013.8
20260507181923 56 174 2.6 7.0 0.00 0.00 0.00 56 1013.8
20260507181419 55 275 3.5 8.7 0.00 0.00 0.00 58 1013.8
20260507180916 55 216 0.9 8.7 0.00 0.00 0.00 58 1013.9
20260507180413 55 242 3.5 8.7 0.00 0.00 0.00 56 1014.0
20260507175909 55 221 4.3 13.0 0.00 0.00 0.00 53 1013.9
20260507175406 55 278 5.2 11.3 0.00 0.00 0.00 54 1013.9
20260507174903 55 279 4.3 8.7 0.00 0.00 0.00 49 1013.9
20260507174401 55 237 4.3 7.0 0.00 0.00 0.00 54 1014.0
20260507173858 55 229 4.3 7.0 0.00 0.00 0.00 58 1014.2
20260507173355 55 187 4.3 11.3 0.00 0.00 0.00 56 1014.1
20260507172851 55 292 5.2 9.6 0.00 0.00 0.00 58 1014.2
20260507172348 55 265 2.6 8.7 0.00 0.00 0.00 54 1014.3
20260507171844 54 238 3.5 7.0 0.00 0.00 0.00 55 1014.2
20260507171341 54 240 3.5 7.0 0.00 0.00 0.00 56 1014.3
20260507170838 54 221 1.7 6.1 0.00 0.00 0.00 58 1014.4
20260507170334 54 22 3.5 7.8 0.00 0.00 0.00 49 1014.4
20260507165830 55 207 2.6 3.5 0.00 0.00 0.00 53 1014.3
20260507165326 54 183 2.6 7.0 0.00 0.00 0.00 55 1014.3
20260507164822 54 258 3.5 6.1 0.00 0.00 0.00 52 1014.3
20260507164320 54 281 2.6 5.2 0.00 0.00 0.00 54 1014.4
20260507163817 55 308 2.6 7.0 0.00 0.00 0.00 54 1014.6
20260507163315 55 236 3.5 6.1 0.00 0.00 0.00 55 1014.5
20260507162810 55 246 1.7 7.0 0.00 0.00 0.00 55 1014.4
20260507162307 54 232 3.5 6.1 0.00 0.00 0.00 54 1014.4
20260507161804 54 257 4.3 8.7 0.00 0.00 0.00 54 1014.2
20260507161300 54 284 7.8 8.7 0.00 0.00 0.00 51 1014.4
20260507160756 53 310 3.5 6.1 0.00 0.00 0.00 53 1014.5
20260507160252 53 208 1.7 7.0 0.00 0.00 0.00 51 1014.3
20260507155748 54 274 3.5 6.1 0.00 0.00 0.00 58 1014.4
20260507155244 54 277 4.3 7.0 0.00 0.00 0.00 62 1014.3
20260507154741 54 208 0.9 7.0 0.00 0.00 0.00 57 1014.2
20260507154239 53 200 1.7 6.1 0.00 0.00 0.00 59 1014.2
20260507153735 53 244 3.5 7.0 0.00 0.00 0.00 53 1014.1
20260507153232 54 250 5.2 8.7 0.00 0.00 0.00 55 1014.3
20260507152728 53 234 1.7 3.5 0.00 0.00 0.00 61 1014.4
20260507152225 53 266 2.6 7.0 0.00 0.00 0.00 56 1014.3
20260507151721 53 184 1.7 7.8 0.00 0.00 0.00 56 1014.3
20260507151218 53 270 4.3 6.1 0.00 0.00 0.00 57 1014.4
20260507150714 53 307 4.3 6.1 0.00 0.00 0.00 57 1014.3
20260507150211 52 266 4.3 7.8 0.00 0.00 0.00 59 1014.3
20260507145707 52 228 3.5 8.7 0.00 0.00 0.00 58 1014.5
20260507145204 52 255 5.2 7.0 0.00 0.00 0.00 57 1014.4
20260507144700 53 251 7.0 8.7 0.00 0.00 0.00 56 1014.3
20260507144159 52 291 3.5 5.2 0.00 0.00 0.00 58 1014.5
20260507143655 53 274 2.6 6.1 0.00 0.00 0.00 66 1014.4
20260507143152 51 244 1.7 5.2 0.00 0.00 0.00 63 1014.3
20260507142648 51 292 3.5 5.2 0.00 0.00 0.00 63 1014.6
20260507142144 51 195 0.9 3.5 0.00 0.00 0.00 68 1014.4
20260507141641 51 240 2.6 6.1 0.00 0.00 0.00 62 1014.5
20260507141138 51 196 0.9 3.5 0.00 0.00 0.00 67 1014.5
20260507140634 51 201 3.5 3.5 0.00 0.00 0.00 67 1014.5
20260507140132 51 319 2.6 3.5 0.00 0.00 0.00 69 1014.7
20260507135629 50 187 0.9 3.5 0.00 0.00 0.00 68 1014.8
20260507135126 50 285 1.7 3.5 0.00 0.00 0.00 67 1014.8
20260507134622 50 221 3.5 5.2 0.00 0.00 0.00 66 1014.7
20260507134119 50 211 1.7 3.5 0.00 0.00 0.00 69 1014.9
20260507133614 50 347 5.2 7.8 0.00 0.00 0.00 66 1014.9
20260507133112 50 192 4.3 6.1 0.00 0.00 0.00 68 1015.0
20260507132609 49 312 1.7 3.5 0.00 0.00 0.00 70 1014.9
20260507132105 49 277 3.5 6.1 0.00 0.00 0.00 69 1014.9
20260507131602 50 262 3.5 5.2 0.00 0.00 0.00 68 1014.8
20260507131100 49 166 1.7 2.6 0.00 0.00 0.00 71 1014.8
20260507130556 48 196 0.0 6.1 0.00 0.00 0.00 74 1014.9
20260507130054 47 212 2.6 7.0 0.00 0.00 0.00 73 1014.9
20260507125553 47 44 1.7 3.5 0.00 0.00 0.00 73 1014.9
20260507125050 47 208 1.7 5.2 0.00 0.00 0.00 75 1014.8
20260507124546 46 301 1.7 3.5 0.00 0.00 0.00 75 1014.7
20260507124044 46 209 1.7 3.5 0.00 0.00 0.00 75 1014.8
20260507123542 45 256 1.7 2.6 0.00 0.00 0.00 79 1014.7
20260507123038 45 203 0.0 1.7 0.00 0.00 0.00 80 1014.8
20260507122534 44 218 0.9 0.9 0.00 0.00 0.00 79 1014.6
20260507122030 44 201 0.0 1.7 0.00 0.00 0.00 80 1014.9
20260507121526 44 246 1.7 1.7 0.00 0.00 0.00 80 1014.7
20260507121021 43 215 0.9 1.7 0.00 0.00 0.00 81 1014.5
20260507120518 44 213 0.0 1.7 0.00 0.00 0.00 81 1014.6
20260507120015 43 213 0.0 0.9 0.00 0.00 0.00 83 1014.5